TimeEDT,TemperatureF,Dew PointF,Humidity,Sea Level PressureIn,VisibilityMPH,Wind Direction,Wind SpeedMPH,Gust SpeedMPH,PrecipitationIn,Events,Conditions,WindDirDegrees,DateUTC
12:15 AM,51.8,46.4,82,30.21,10.0,Calm,Calm,-,N/A,,Partly Cloudy,0,2012-09-25 04:15:00
12:35 AM,51.8,46.4,82,30.21,10.0,Calm,Calm,-,N/A,,Clear,0,2012-09-25 04:35:00
12:55 AM,50.0,46.4,87,30.21,10.0,Calm,Calm,-,N/A,,Clear,0,2012-09-25 04:55:00
1:15 AM,48.2,44.6,87,30.21,10.0,Calm,Calm,-,N/A,,Clear,0,2012-09-25 05:15:00
1:35 AM,48.2,46.4,93,30.20,10.0,Calm,Calm,-,N/A,,Clear,0,2012-09-25 05:35:00
1:55 AM,48.2,44.6,87,30.20,10.0,Calm,Calm,-,N/A,,Clear,0,2012-09-25 05:55:00
2:15 AM,48.2,46.4,93,30.20,10.0,Calm,Calm,-,N/A,,Clear,0,2012-09-25 06:15:00
2:35 AM,46.4,44.6,93,30.20,10.0,Calm,Calm,-,N/A,,Clear,0,2012-09-25 06:35:00
2:55 AM,46.4,44.6,93,30.20,10.0,Calm,Calm,-,N/A,,Clear,0,2012-09-25 06:55:00
3:15 AM,46.4,44.6,93,30.20,10.0,Calm,Calm,-,N/A,,Clear,0,2012-09-25 07:15:00
3:35 AM,46.4,44.6,93,30.20,10.0,Calm,Calm,-,N/A,,Clear,0,2012-09-25 07:35:00
3:55 AM,46.4,42.8,87,30.20,9.0,Calm,Calm,-,N/A,,Clear,0,2012-09-25 07:55:00
4:15 AM,46.4,44.6,93,30.20,2.5,Calm,Calm,-,N/A,,Clear,0,2012-09-25 08:15:00
4:35 AM,46.4,42.8,87,30.20,7.0,Calm,Calm,-,N/A,,Clear,0,2012-09-25 08:35:00
4:55 AM,44.6,42.8,93,30.20,9.0,Calm,Calm,-,N/A,,Clear,0,2012-09-25 08:55:00
5:15 AM,44.6,42.8,93,30.21,10.0,Calm,Calm,-,N/A,,Clear,0,2012-09-25 09:15:00
5:35 AM,44.6,42.8,93,30.21,10.0,Calm,Calm,-,N/A,,Clear,0,2012-09-25 09:35:00
5:55 AM,44.6,42.8,93,30.22,10.0,Calm,Calm,-,N/A,,Clear,0,2012-09-25 09:55:00
6:15 AM,44.6,42.8,93,30.22,10.0,Calm,Calm,-,N/A,,Clear,0,2012-09-25 10:15:00
6:35 AM,44.6,41.0,87,30.22,10.0,Calm,Calm,-,N/A,,Clear,0,2012-09-25 10:35:00
6:55 AM,44.6,42.8,93,30.23,10.0,Calm,Calm,-,N/A,,Clear,0,2012-09-25 10:55:00
7:15 AM,44.6,41.0,87,30.23,7.0,Calm,Calm,-,N/A,,Clear,0,2012-09-25 11:15:00
7:35 AM,44.6,41.0,87,30.24,10.0,Calm,Calm,-,N/A,,Clear,0,2012-09-25 11:35:00
7:55 AM,46.4,44.6,93,30.25,10.0,Calm,Calm,-,N/A,,Clear,0,2012-09-25 11:55:00
8:15 AM,50.0,46.4,87,30.25,10.0,Calm,Calm,-,N/A,,Clear,0,2012-09-25 12:15:00
8:35 AM,53.6,48.2,82,30.25,10.0,Calm,Calm,-,N/A,,Clear,0,2012-09-25 12:35:00
8:55 AM,55.4,48.2,77,30.26,10.0,Calm,Calm,-,N/A,,Clear,0,2012-09-25 12:55:00
9:15 AM,57.2,50.0,77,30.26,10.0,Calm,Calm,-,N/A,,Clear,0,2012-09-25 13:15:00
9:35 AM,60.8,51.8,72,30.26,10.0,Calm,Calm,-,N/A,,Clear,0,2012-09-25 13:35:00
9:55 AM,64.4,51.8,64,30.25,10.0,Calm,Calm,-,N/A,,Clear,0,2012-09-25 13:55:00
10:15 AM,68.0,51.8,56,30.25,10.0,SE,3.5,-,N/A,,Clear,140,2012-09-25 14:15:00
10:35 AM,69.8,51.8,53,30.25,10.0,SSE,3.5,-,N/A,,Clear,150,2012-09-25 14:35:00
10:55 AM,71.6,48.2,43,30.25,10.0,SSE,8.1,-,N/A,,Clear,150,2012-09-25 14:55:00
11:15 AM,71.6,48.2,43,30.25,10.0,Calm,Calm,-,N/A,,Clear,0,2012-09-25 15:15:00
11:35 AM,73.4,50.0,44,30.25,10.0,WSW,4.6,-,N/A,,Clear,240,2012-09-25 15:35:00
11:55 AM,73.4,48.2,41,30.26,10.0,WSW,5.8,-,N/A,,Clear,250,2012-09-25 15:55:00
12:15 PM,73.4,48.2,41,30.26,10.0,SSW,5.8,-,N/A,,Clear,210,2012-09-25 16:15:00
12:35 PM,73.4,48.2,41,30.25,10.0,SSE,5.8,-,N/A,,Clear,160,2012-09-25 16:35:00
12:55 PM,73.4,48.2,41,30.25,10.0,SW,5.8,-,N/A,,Clear,230,2012-09-25 16:55:00
1:15 PM,75.2,48.2,38,30.24,10.0,SW,8.1,-,N/A,,Clear,220,2012-09-25 17:15:00
1:35 PM,75.2,48.2,38,30.24,10.0,SSW,5.8,-,N/A,,Clear,210,2012-09-25 17:35:00
1:55 PM,75.2,48.2,38,30.22,10.0,SSW,4.6,-,N/A,,Clear,210,2012-09-25 17:55:00
2:15 PM,75.2,48.2,38,30.21,10.0,SSW,8.1,-,N/A,,Clear,200,2012-09-25 18:15:00
3:15 PM,77.0,48.2,36,30.20,10.0,SSW,5.8,-,N/A,,Clear,210,2012-09-25 19:15:00
3:35 PM,77.0,48.2,36,30.20,10.0,Calm,Calm,-,N/A,,Clear,0,2012-09-25 19:35:00
3:55 PM,78.8,48.2,34,30.20,10.0,SE,6.9,-,N/A,,Clear,140,2012-09-25 19:55:00
4:15 PM,77.0,48.2,36,30.20,10.0,South,3.5,-,N/A,,Clear,190,2012-09-25 20:15:00
4:35 PM,77.0,48.2,36,30.21,10.0,SW,5.8,-,N/A,,Clear,230,2012-09-25 20:35:00
4:55 PM,78.8,48.2,34,30.22,10.0,Calm,Calm,-,N/A,,Clear,0,2012-09-25 20:55:00
5:15 PM,77.0,48.2,36,30.22,10.0,SSW,6.9,-,N/A,,Clear,200,2012-09-25 21:15:00
5:35 PM,75.2,50.0,41,30.22,10.0,WNW,4.6,-,N/A,,Clear,300,2012-09-25 21:35:00
5:55 PM,75.2,50.0,41,30.22,10.0,SSW,4.6,-,N/A,,Clear,210,2012-09-25 21:55:00
6:15 PM,75.2,50.0,41,30.22,10.0,Calm,Calm,-,N/A,,Clear,0,2012-09-25 22:15:00
6:35 PM,73.4,51.8,47,30.22,10.0,Calm,Calm,-,N/A,,Clear,0,2012-09-25 22:35:00
6:55 PM,71.6,53.6,53,30.21,10.0,Calm,Calm,-,N/A,,Clear,0,2012-09-25 22:55:00
7:15 PM,69.8,53.6,56,30.22,10.0,Calm,Calm,-,N/A,,Clear,0,2012-09-25 23:15:00
7:35 PM,66.2,53.6,64,30.21,10.0,Calm,Calm,-,N/A,,Clear,0,2012-09-25 23:35:00
7:55 PM,64.4,53.6,68,30.20,10.0,Calm,Calm,-,N/A,,Clear,0,2012-09-25 23:55:00
8:15 PM,64.4,53.6,68,30.19,10.0,Calm,Calm,-,N/A,,Clear,0,2012-09-26 00:15:00
8:55 PM,62.6,53.6,72,30.19,10.0,Calm,Calm,-,N/A,,Clear,0,2012-09-26 00:55:00
9:15 PM,60.8,53.6,77,30.20,10.0,Calm,Calm,-,N/A,,Clear,0,2012-09-26 01:15:00
9:35 PM,62.6,51.8,68,30.20,10.0,Calm,Calm,-,N/A,,Clear,0,2012-09-26 01:35:00
9:55 PM,60.8,51.8,72,30.20,10.0,SSW,5.8,-,N/A,,Clear,210,2012-09-26 01:55:00
10:15 PM,60.8,51.8,72,30.20,10.0,SSW,3.5,-,N/A,,Clear,210,2012-09-26 02:15:00
10:35 PM,62.6,50.0,63,30.20,10.0,SSW,3.5,-,N/A,,Clear,200,2012-09-26 02:35:00
10:55 PM,62.6,48.2,59,30.20,10.0,SSW,4.6,-,N/A,,Clear,210,2012-09-26 02:55:00
11:15 PM,62.6,48.2,59,30.20,10.0,SSW,4.6,-,N/A,,Clear,200,2012-09-26 03:15:00
11:35 PM,62.6,48.2,59,30.20,10.0,SSW,4.6,-,N/A,,Clear,210,2012-09-26 03:35:00
11:55 PM,60.8,48.2,63,30.20,10.0,SSW,4.6,-,N/A,,Clear,210,2012-09-26 03:55:00